Location: Barruelo
(41.2448°N, 3.8231°W)
Time: 22:33:15
(UTC+00:00)

Cosmos 1867 - Pass Details

Date: 11 December 2025
Orbit: 777 x 797 km, 65.0° (Epoch: 14 January)

Event Time Altitude Azimuth Distance (km) Brightness Sun altitude
Rises 17:08:21 0° 333° (NNW) 3,307 6.8 -4.5°
Reaches altitude 10° 17:10:58 10° 341° (NNW) 2,374 6.0 -4.9°
Maximum altitude 17:16:02 37° 49° (NE) 1,217 4.1 -5.8°
Drops below altitude 10° 17:21:02 10° 116° (ESE) 2,358 5.7 -6.6°
Sets 17:23:37 0° 125° (SE) 3,282 6.5 -7.1°
